Location: Unspecified
(0.0000°N, 0.0000°E)
Time: 17:55:52
(UTC+00:00)

STARLINK 1058 - Pass Details

Date: 19 January 2020
Orbit: 548 x 551 km, 53.0° (Epoch: 17 January)

Event Time Altitude Azimuth Distance (km) Brightness Sun altitude
Rises 05:36:50 0° 205° (SSW) 2,715 7.1 -7.9°
Reaches altitude 10° 05:39:08 10° 199° (SSW) 1,819 6.3 -7.3°
Maximum altitude 05:43:08 49° 124° (SE) 710 4.8 -6.4°
Drops below altitude 10° 05:47:07 10° 49° (NE) 1,810 6.7 -5.5°
Sets 05:49:23 0° 43° (NE) 2,700 7.5 -4.9°
